Weather observations for the past three days for
Fulton, Oswego County Airport
Imperial (Metric)
Date Time (edt) Wind (mph) Vis. (mi.) Weather Sky Cond. Temperature (ºF) Relative Humidity Wind Chill (°F) Heat Index (°F) Pressure Precipitation (in)
Air Dwpt 6 hour altimeter (in) sea level (mb) 1 hr 3 hr 6 hr
Max. Min.
15 02:54 Calm 10.00 Mostly Cloudy BKN055 57.9 55 90% 29.99 1015.4
15 01:54 Calm 10.00 Overcast BKN060 OVC095 59 55 66.9 55.9 87% 29.99 1015.2
15 00:54 NE 3 10.00 Overcast FEW060 SCT080 OVC095 59 55 87% 29.98 1014.9
14 23:54 Calm 10.00 Overcast BKN060 OVC075 57.9 55 90% 29.96 1014.4
14 22:54 Calm 10.00 Fair CLR 57 53.1 87% 29.95 1014.0
14 21:54 Calm 10.00 Fair CLR 62.1 53.1 73% 29.94 1013.8
14 20:54 NW 5 10.00 Fair CLR 63 53.1 70% 29.93 1013.3
14 19:54 NW 7 10.00 Fair CLR 66.9 54 75.9 66.9 63% 29.92 1013.1
14 18:54 NW 10 10.00 Fair CLR 70 54 57% 29.91 1012.8
14 17:54 N 10 10.00 Fair CLR 73 54 51% 29.89 1012.1
14 16:54 NW 10 10.00 Fair CLR 73.9 53.1 48% 29.89 1012.0
14 15:54 W 10 10.00 Fair CLR 75 52 45% 78 29.89 1011.8
14 14:54 W 9 10.00 Fair CLR 75 55 50% 78 29.9 1012.2
14 13:54 NW 13 10.00 Fair CLR 73.9 55.9 75 69.1 54% 29.9 1012.3
14 12:54 W 12 G 20 10.00 Fair CLR 73.9 57 56% 29.91 1012.5
14 11:54 NW 12 G 18 10.00 Fair CLR 73.9 55.9 54% 29.9 1012.2
14 10:54 W 12 10.00 Fair CLR 73 54 51% 29.9 1012.0
14 09:54 NW 10 10.00 Fair CLR 71.1 55.9 59% 29.89 1011.8
14 08:54 W 13 G 24 10.00 Fair CLR 71.1 55.9 59% 29.88 1011.7
14 07:54 W 6 10.00 Fair CLR 70 59 70 63 68% 29.86 1010.9
14 06:54 W 7 10.00 Fair CLR 66.9 61 81% 29.84 1010.1
14 05:54 W 6 10.00 Mostly Cloudy FEW037 BKN070 66.9 61 81% 29.81 1009.2
14 04:54 Calm 10.00 Overcast FEW036 OVC048 64.9 61 87% 29.79 1008.6
14 03:54 Calm 10.00 Fair CLR 66 61 84% 29.77 1007.9
14 02:54 Calm 10.00 Mostly Cloudy BKN060 66 61 84% 29.78 1008.2
14 01:54 Calm 10.00 Mostly Cloudy SCT065 BKN080 BKN100 69.1 61 82 69.1 76% 29.79 1008.4
14 00:54 S 9 10.00 Overcast OVC090 72 60.1 66% 29.77 1007.6
13 23:54 S 15 G 22 10.00 Light Rain BKN080 OVC100 78.1 57 48% 79 29.77 1007.8
13 22:54 S 7 10.00 Fair CLR 75 57.9 55% 78 29.79 1008.3
13 21:54 S 8 10.00 Mostly Cloudy SCT080 BKN100 78.1 57.9 50% 79 29.8 1008.8
13 20:54 S 6 10.00 Overcast SCT090 OVC110 79 57.9 49% 80 29.78 1008.1
13 19:54 S 8 10.00 A Few Clouds FEW100 82 57 88 81 43% 82 29.8 1008.7
13 18:54 S 8 10.00 Fair CLR 84.9 59 42% 85 29.79 1008.6
13 17:54 S 10 10.00 Fair CLR 86 60.1 42% 86 29.81 1009.0
13 16:54 SW 9 10.00 A Few Clouds FEW120 84 57 40% 83 29.83 1010.0
13 15:54 SW 8 10.00 A Few Clouds FEW070 87.1 60.1 40% 87 29.85 1010.5
13 14:54 S 9 G 20 10.00 Mostly Cloudy BKN070 87.1 60.1 40% 87 29.85 1010.3
13 13:54 SW 10 10.00 Fair CLR 86 60.1 87.1 63 42% 86 29.86 1011.0
13 12:54 SW 13 G 21 10.00 Fair CLR 84 59 43% 84 29.88 1011.8
13 11:54 SW 9 10.00 Fair CLR 82.9 59 44% 83 29.9 1012.1
13 10:54 S 9 10.00 Partly Cloudy SCT080 79 59 50% 80 29.9 1012.4
13 09:54 Vrbl 6 10.00 Fair CLR 73.9 57.9 57% 29.92 1012.8
13 08:54 S 7 10.00 Partly Cloudy SCT090 69.1 57 66% 29.94 1013.6
13 07:54 Vrbl 3 10.00 Partly Cloudy SCT110 63 57 63 53.1 81% 29.94 1013.8
13 06:54 Vrbl 5 10.00 Mostly Cloudy BKN120 59 55 87% 29.95 1013.9
13 05:54 Calm 8.00 Fair CLR 55 53.1 93% 29.94 1013.9
13 04:54 Vrbl 3 10.00 Fair CLR 55 52 90% 29.94 1013.7
13 03:54 SE 3 10.00 Fair CLR 54 51.1 90% 29.95 1014.0
13 02:54 Calm 10.00 Fair CLR 55 52 90% 29.95 1014.0
13 01:54 Calm 10.00 Fair CLR 55 52 68 54 90% 29.96 1014.3
13 00:54 SE 3 10.00 Fair CLR 55 52 90% 29.96 1014.6
12 23:54 Calm 10.00 Fair CLR 54 52 93% 29.97 1015.0
12 22:54 Calm 10.00 Fair CLR 55.9 52 87% 29.98 1015.0
12 21:54 Calm 10.00 Fair CLR 57 52 83% 29.99 1015.3
12 20:54 Calm 10.00 Fair CLR 60.1 52 75% 29.98 1015.2
12 19:54 Calm 10.00 Fair CLR 68 52 72 66.9 57% 29.99 1015.4
12 18:54 Calm 10.00 Fair CLR 72 50 46% 29.99 1015.5
12 17:54 N 3 10.00 Fair CLR 72 51.1 48% 29.99 1015.6
12 16:54 NW 3 10.00 Mostly Cloudy SCT042 BKN050 69.1 51.1 53% 30.01 1016.0
12 15:54 W 5 10.00 Partly Cloudy SCT050 70 52 53% 30.02 1016.4
12 14:54 Calm 10.00 Mostly Cloudy BKN050 69.1 52 55% 30.02 1016.6
12 13:54 Vrbl 6 10.00 Overcast OVC046 68 52 68 59 57% 30.04 1017.1
12 12:54 Calm 10.00 Overcast SCT037 OVC048 64.9 52 63% 30.05 1017.5
12 11:54 Calm 10.00 Overcast OVC040 64 54 70% 30.05 1017.6
12 09:54 Calm 10.00 Overcast BKN015 BKN023 OVC044 62.1 55 78% 30.06 1017.8
12 08:54 Calm 10.00 Overcast BKN027 OVC044 61 55 81% 30.06 1017.9
12 07:54 Calm 10.00 Overcast OVC043 59 55 59 55 87% 30.05 1017.6
12 06:54 Calm 10.00 Overcast OVC042 57 54 90% 30.04 1017.4
12 05:54 Calm 10.00 Overcast OVC042 55.9 53.1 90% 30.03 1016.8
12 04:54 Calm 10.00 Overcast OVC043 55.9 52 87% 30.03 1016.8
12 03:54 Calm 10.00 Overcast OVC042 55.9 52 87% 30.02 1016.6
Date Time (edt) Wind (mph) Vis. (mi.) Weather Sky Cond. Air Dwpt Max. Min. Relative Humidity Wind Chill (°F) Heat Index (°F) altimeter (in) sea level (mb) 1 hr 3 hr 6 hr
6 hour
Temperature (ºF) Pressure Precipitation (in)